User: anonymous
Location: Vancouver
(49.2500°N, 123.1330°W)
Time: 22:14:57
(UTC-07:00)
Language:

Cosmos 1408 Rocket - Orbit

View from above orbital plane
View from above orbital plane
View from above satellite
View from above satellite

Ground track
Ground track

The orbit data is extracted from the following two-line orbital elements,

1 13553U 82092B   14238.16068343  .00000202  00000-0  21479-4 0  9875
2 13553 082.5677 109.7565 0021771 190.5011 287.4871 14.83570886724877
Epoch (UTC): 26 August 2014 03:51:23
Eccentricity: 0.0021771
inclination: 82.5677°
perigee height: 603 km
apogee height: 633 km
right ascension of ascending node: 109.7565°
argument of perigee: 190.5011°
revolutions per day: 14.83570886
mean anomaly at epoch: 287.4871°
orbit number at epoch: 72487

The dashed part of the orbit path shows where the satellite is in the earth's shadow,  

DLR